Wind_Speed
3 3 4 4 3 3 3 2 2 2 2 2 2 1 1 1 1 1 1 2 2 2 2 3 3 3 3 4 4 4 4 5 5 6 6 7 7 7 7 7 8 8 8
2 2 3 3 3 2 2 2 1 1 1 1 1 2 2 2 2 2 2 3 4 4 4 4 4 4 4 5 5 5 5 6 6 6 7 7 8 8 8 8 9 9 9
1 2 2 3 3 2 2 1 0 0 1 1 2 2 2 2 2 3 4 4 5 5 5 5 5 6 6 6 6 6 7 7 7 8 8 9 9 9 9 10 10 10 10
1 1 2 2 3 3 2 2 1 1 2 2 3 3 2 3 4 4 5 4 5 6 6 6 7 7 8 7 7 8 8 8 8 9 9 9 10 10 11 11 11 11 12
1 1 2 2 3 3 3 3 3 3 3 4 4 4 4 5 5 6 7 7 7 7 7 8 8 9 9 9 9 9 9 9 10 11 10 10 11 12 12 13 13 13 14
1 0 1 1 2 3 3 4 4 5 5 5 6 6 6 6 7 7 8 8 8 8 9 9 10 10 10 10 10 11 11 12 12 13 13 13 14 14 14 14 15 15 16
1 1 1 2 3 4 4 5 5 6 6 6 7 8 8 8 9 9 9 10 10 10 11 11 12 11 11 12 12 12 13 13 14 15 16 16 16 16 17 18 17 17 17
2 2 3 3 4 4 5 5 6 6 7 8 9 9 9 9 10 11 11 11 12 12 13 13 13 13 13 13 14 14 14 15 16 16 17 18 18 18 18 19 19 20 19
3 3 4 4 5 5 6 6 7 8 8 8 9 10 10 11 11 11 12 13 13 13 13 14 15 14 14 14 14 15 15 16 17 17 18 19 19 18 19 20 21 21 21
4 4 5 5 6 6 7 7 8 9 9 10 11 11 12 12 12 13 13 13 14 15 15 15 15 15 15 15 16 17 17 17 17 18 19 19 20 20 20 21 22 22 21
5 6 6 6 6 7 7 8 8 9 10 11 12 12 13 14 14 14 14 14 15 15 15 14 14 15 15 16 16 17 17 18 18 19 19 19 20 21 21 21 22 22 22
7 7 6 7 7 8 9 9 9 9 10 11 12 13 14 14 15 16 15 15 16 15 15 15 15 16 16 17 17 17 17 18 18 18 19 20 21 21 21 22 22 23 23
7 7 7 7 8 9 10 10 10 11 11 12 12 13 13 14 15 15 15 15 16 16 16 16 16 16 16 16 16 17 17 18 18 18 19 20 21 22 22 23 23 23 24
8 8 8 8 9 9 10 10 11 11 12 12 12 13 13 14 15 15 15 16 16 16 16 17 16 16 16 16 16 17 17 18 19 19 20 21 21 22 22 23 23 24 24
9 9 9 9 9 9 10 10 11 12 12 12 13 13 13 14 15 15 15 15 16 16 17 17 17 16 17 17 17 18 19 19 19 20 21 22 22 23 23 23 24 25 25
9 9 9 10 10 10 11 11 11 12 12 12 13 13 14 15 15 16 16 16 17 17 17 17 17 18 18 18 18 19 19 20 21 21 22 23 23 24 24 24 25 26 27
10 10 9 10 11 11 11 11 11 12 12 12 13 14 15 15 16 16 16 16 17 17 17 17 18 19 19 19 19 19 20 21 22 23 22 23 23 24 25 25 26 27 28
12 12 11 11 11 11 11 12 12 12 12 13 14 14 14 15 15 15 16 16 17 17 18 18 19 19 19 19 20 20 21 22 22 23 24 24 25 25 26 27 28 28 29
13 13 12 12 11 11 11 11 11 12 12 13 13 14 15 16 15 16 16 17 17 17 18 18 19 19 20 20 20 21 22 22 23 24 24 25 26 26 27 28 28 29 29
14 13 13 13 12 11 12 12 13 13 13 13 14 15 15 16 16 17 17 17 17 17 18 18 18 19 19 20 21 21 22 23 24 24 25 25 26 27 28 28 29 29 29
15 14 14 12 12 12 13 13 14 14 14 15 15 16 16 16 16 17 16 17 17 17 18 18 19 19 20 20 21 21 22 23 23 25 26 26 27 28 29 29 29 29 30
16 14 13 13 13 13 13 14 14 15 15 15 16 16 16 16 17 17 17 17 17 18 18 18 19 20 20 20 21 22 23 24 25 26 27 27 28 29 29 29 29 29 30
15 14 14 13 13 14 14 15 15 15 16 16 17 16 16 17 18 17 17 18 18 18 18 19 19 20 20 21 22 23 24 25 26 27 28 28 29 29 29 29 29 30 30
15 14 14 14 14 15 15 15 16 16 16 16 17 17 17 18 18 18 18 18 18 18 19 20 20 21 21 22 23 24 25 26 27 27 27 28 28 28 28 28 29 30 30
16 15 14 14 15 16 16 16 16 17 16 17 17 18 18 19 19 18 19 19 19 19 20 21 21 22 22 23 24 25 26 27 27 27 27 28 28 28 28 28 29 29 29
16 16 15 16 16 16 16 16 16 17 17 18 18 18 18 19 19 19 19 19 20 20 21 22 22 23 24 24 24 25 26 26 27 27 27 28 28 29 29 29 29 29 29
Wind_Direction
120 121 123 128 131 134 134 122 113 99 82 79 76 55 27 21 18 5 359 338 317 302 307 299 299 303 306 307 305 300 300 294 291 292 287 282 280 280 281 282 283 280 279
135 149 143 150 153 155 158 152 139 110 59 36 12 354 335 339 320 297 305 308 304 297 300 299 298 299 299 299 301 299 297 296 294 298 296 293 288 283 282 282 281 284 281
107 167 176 172 177 174 173 179 221 321 314 312 331 343 342 329 319 303 300 299 298 295 292 290 292 289 292 297 296 298 295 295 296 298 295 294 291 285 283 282 282 283 283
73 166 191 193 197 203 212 222 243 279 297 300 309 314 315 314 311 309 304 296 304 301 293 290 291 294 291 290 292 294 295 294 296 298 296 294 293 289 287 284 284 282 282
77 150 182 190 197 217 231 244 257 265 284 292 301 301 297 298 299 302 300 298 300 303 299 293 291 293 291 289 290 291 293 295 295 294 295 297 295 293 291 288 287 286 283
86 156 184 208 225 237 244 253 262 267 275 282 287 291 289 291 292 296 298 299 296 296 295 292 291 293 291 289 292 291 289 291 295 293 292 294 293 291 291 287 287 287 286
329 255 250 251 251 253 257 261 266 274 285 286 287 289 290 291 288 288 292 294 291 291 290 291 291 292 291 288 287 287 287 289 292 292 291 291 291 289 290 288 286 285 285
312 291 270 265 268 270 268 266 266 278 283 284 286 288 293 294 295 292 289 290 288 287 286 283 283 286 288 286 287 286 284 284 286 290 289 288 288 286 286 288 286 283 284
301 291 285 277 277 280 277 276 276 282 287 286 286 287 291 296 297 295 294 290 288 285 284 281 281 283 287 287 287 289 287 286 285 284 287 288 290 289 288 286 288 287 285
295 292 288 284 282 281 281 282 283 282 283 284 285 287 290 293 294 295 293 289 287 286 282 285 284 286 290 290 287 287 288 286 286 286 285 287 289 291 291 288 287 287 283
304 300 291 286 283 283 283 285 288 287 284 284 285 286 288 291 292 293 291 288 288 288 284 284 284 286 288 289 288 286 289 290 289 286 286 287 288 290 291 289 288 288 285
304 299 294 288 289 292 289 288 290 291 290 287 286 286 287 289 288 289 290 288 286 285 286 286 285 284 285 288 286 286 287 290 292 290 288 288 288 289 290 289 289 288 287
308 305 298 292 290 292 291 289 291 292 292 289 288 288 287 288 290 290 289 288 288 287 287 287 285 286 288 289 289 289 289 290 293 292 291 291 290 290 290 290 290 289 289
312 309 305 300 297 295 291 290 291 291 292 291 291 291 289 290 292 292 290 289 290 289 288 287 287 288 288 288 290 290 292 293 294 294 293 294 293 292 291 293 292 290 290
311 306 304 300 298 297 293 292 291 293 293 293 293 293 291 292 295 296 294 292 292 290 288 287 286 286 286 287 288 291 293 294 295 294 295 294 293 293 293 294 295 294 294
314 306 300 298 298 296 296 294 292 294 294 294 296 295 294 295 296 295 294 293 292 290 289 288 288 289 288 289 290 291 292 293 294 295 296 294 292 293 294 294 294 295 295
319 311 307 305 302 300 298 297 295 296 297 297 298 299 297 296 296 296 295 293 292 291 289 288 289 290 291 291 292 293 295 295 295 296 298 298 296 298 298 295 296 295 295
326 320 313 307 304 303 304 302 298 298 298 300 301 302 301 300 300 300 298 295 294 294 292 290 291 292 292 293 293 294 294 296 296 296 297 297 298 299 299 298 296 296 296
323 321 319 316 312 310 310 308 306 304 304 303 305 305 304 301 302 303 302 299 297 298 296 294 293 293 293 293 293 295 295 296 296 297 298 298 299 299 300 299 298 298 297
324 320 319 313 310 309 309 308 306 304 304 304 306 308 308 306 304 305 304 303 301 300 299 296 296 296 295 295 295 296 297 297 298 300 302 302 301 301 300 301 301 301 300
320 317 317 313 308 308 308 308 309 307 306 305 306 305 304 305 305 305 305 305 303 302 301 299 298 297 298 298 298 298 299 299 301 302 302 302 302 303 303 303 302 302 302
317 314 313 310 307 307 308 307 308 308 308 308 309 309 308 308 307 308 308 306 303 303 303 302 301 298 298 299 300 300 301 302 302 303 303 303 304 303 304 303 303 303 303
315 310 313 310 307 306 309 309 307 307 308 308 309 309 308 308 308 308 308 306 303 303 304 304 303 302 301 302 302 301 301 302 303 304 304 305 306 306 305 305 305 305 306
313 311 312 312 311 313 311 311 307 307 308 309 308 308 307 307 307 307 308 308 306 305 304 303 303 304 303 303 302 301 302 302 303 304 306 307 307 307 307 308 308 308 308
312 310 309 310 311 312 313 310 307 306 309 310 309 308 306 306 305 305 306 306 305 305 305 305 304 304 304 303 302 302 302 304 305 307 307 308 308 308 307 308 308 308 308
306 307 307 308 310 310 311 310 310 310 310 309 309 309 307 306 306 306 306 306 305 305 306 306 306 305 305 305 305 305 305 306 307 307 308 308 308 308 308 308 309 309 308
Height
5893 5893 5894 5895 5895 5896 5896 5897 5897 5897 5897 5897 5897 5897 5897 5897 5897 5897 5897 5897 5897 5897 5897 5897 5896 5896 5896 5896 5896 5895 5895 5895 5894 5894 5894 5894 5893 5893 5893 5893 5893 5892 5892
5893 5894 5894 5895 5895 5896 5896 5897 5897 5898 5898 5897 5897 5897 5897 5897 5897 5897 5897 5897 5896 5896 5896 5896 5896 5896 5895 5895 5895 5894 5894 5894 5893 5893 5893 5892 5892 5892 5891 5891 5891 5890 5890
5893 5894 5894 5895 5895 5896 5896 5897 5897 5897 5897 5897 5897 5897 5897 5897 5896 5896 5896 5896 5896 5895 5895 5895 5894 5894 5894 5894 5893 5893 5892 5892 5892 5891 5891 5890 5890 5890 5889 5889 5888 5888 5888
5893 5894 5894 5895 5895 5896 5896 5897 5897 5897 5897 5897 5897 5896 5896 5896 5896 5896 5895 5895 5895 5894 5894 5894 5893 5893 5892 5892 5892 5891 5891 5890 5889 5889 5889 5888 5888 5887 5887 5886 5886 5886 5885
5894 5894 5894 5895 5895 5896 5896 5896 5896 5897 5897 5897 5896 5896 5896 5896 5895 5895 5895 5894 5894 5893 5893 5892 5892 5891 5891 5890 5890 5889 5888 5888 5888 5887 5886 5886 5886 5885 5884 5884 5883 5883 5882
5894 5894 5894 5895 5895 5895 5895 5896 5896 5896 5896 5895 5895 5895 5895 5894 5894 5893 5893 5893 5892 5892 5891 5890 5890 5889 5889 5888 5888 5887 5886 5886 5885 5884 5884 5883 5883 5882 5882 5881 5880 5880 5879
5894 5894 5894 5894 5894 5895 5895 5895 5895 5895 5895 5894 5894 5894 5893 5893 5892 5892 5891 5891 5890 5889 5889 5888 5887 5887 5886 5886 5885 5884 5884 5883 5882 5881 5881 5880 5879 5879 5878 5877 5876 5876 5875
5894 5894 5894 5894 5894 5894 5894 5894 5893 5893 5893 5893 5893 5892 5892 5892 5890 5890 5889 5888 5888 5887 5886 5885 5885 5884 5883 5883 5882 5881 5881 5880 5879 5878 5877 5876 5876 5875 5874 5873 5872 5871 5870
5894 5893 5893 5893 5893 5893 5893 5892 5892 5892 5891 5891 5890 5890 5890 5889 5888 5888 5887 5886 5885 5884 5883 5882 5881 5881 5880 5879 5879 5878 5877 5876 5875 5874 5873 5873 5872 5871 5870 5869 5868 5867 5866
5893 5893 5892 5892 5892 5892 5891 5891 5891 5890 5889 5889 5888 5888 5888 5887 5886 5885 5884 5883 5882 5881 5880 5879 5878 5877 5877 5876 5875 5874 5873 5872 5871 5870 5870 5869 5868 5867 5866 5865 5864 5862 5861
5892 5892 5891 5891 5891 5890 5890 5889 5889 5888 5887 5887 5886 5885 5885 5884 5883 5883 5881 5880 5879 5878 5877 5876 5875 5874 5873 5872 5871 5870 5869 5868 5867 5866 5865 5864 5863 5862 5861 5860 5858 5857 5856
5891 5891 5890 5890 5889 5889 5888 5887 5887 5886 5885 5884 5884 5883 5882 5881 5880 5879 5878 5877 5876 5875 5874 5873 5872 5871 5870 5869 5867 5866 5866 5864 5863 5862 5861 5860 5859 5858 5856 5855 5853 5852 5850
5890 5889 5889 5888 5888 5887 5886 5885 5884 5884 5883 5882 5881 5880 5879 5878 5877 5875 5874 5873 5872 5871 5870 5869 5868 5867 5866 5865 5864 5862 5861 5860 5859 5858 5856 5855 5854 5852 5851 5850 5848 5846 5845
5889 5888 5887 5886 5885 5885 5884 5883 5882 5881 5880 5879 5878 5877 5876 5875 5873 5872 5871 5870 5869 5868 5866 5865 5864 5863 5862 5861 5860 5858 5857 5856 5855 5853 5852 5850 5849 5847 5845 5844 5842 5840 5839
5887 5886 5885 5884 5883 5882 5882 5881 5880 5879 5877 5876 5875 5874 5873 5872 5870 5869 5868 5866 5866 5864 5863 5861 5860 5859 5858 5857 5856 5854 5853 5851 5850 5849 5847 5845 5843 5842 5840 5838 5836 5834 5832
5886 5884 5883 5882 5881 5880 5879 5878 5877 5876 5875 5873 5872 5871 5870 5868 5867 5865 5864 5862 5861 5860 5859 5857 5856 5854 5854 5853 5851 5850 5848 5847 5845 5844 5842 5840 5838 5836 5834 5832 5830 5828 5826
5884 5882 5881 5880 5879 5878 5877 5875 5874 5873 5872 5871 5870 5868 5866 5865 5863 5862 5860 5858 5857 5856 5855 5853 5852 5850 5849 5848 5847 5845 5844 5842 5840 5839 5837 5834 5832 5830 5828 5826 5823 5821 5819
5882 5881 5879 5878 5876 5875 5874 5873 5871 5870 5869 5868 5866 5865 5863 5862 5860 5858 5857 5855 5853 5852 5851 5849 5847 5846 5844 5843 5842 5840 5839 5837 5835 5833 5831 5829 5827 5825 5822 5819 5817 5814 5811
5881 5879 5877 5876 5874 5873 5871 5870 5869 5868 5866 5865 5863 5862 5860 5858 5856 5855 5853 5851 5850 5848 5846 5845 5843 5841 5840 5839 5837 5836 5834 5832 5830 5828 5825 5823 5821 5818 5816 5813 5810 5807 5804
5879 5877 5875 5874 5872 5871 5869 5868 5866 5865 5863 5862 5860 5858 5856 5855 5853 5851 5849 5848 5846 5844 5842 5841 5839 5837 5835 5834 5832 5831 5828 5826 5824 5822 5819 5817 5814 5812 5809 5806 5803 5799 5796
5876 5875 5873 5871 5870 5868 5867 5865 5864 5862 5860 5859 5857 5855 5853 5851 5849 5847 5846 5844 5842 5840 5838 5836 5835 5833 5831 5829 5827 5825 5823 5821 5818 5816 5813 5811 5808 5805 5802 5799 5795 5792 5788
5873 5872 5871 5869 5867 5866 5864 5862 5861 5859 5857 5855 5854 5852 5850 5848 5846 5844 5842 5840 5838 5836 5834 5832 5830 5828 5826 5824 5823 5820 5818 5816 5813 5811 5807 5805 5802 5798 5795 5791 5788 5784 5781
5870 5869 5868 5866 5864 5862 5861 5859 5857 5856 5854 5852 5850 5848 5846 5844 5842 5840 5838 5836 5834 5832 5830 5828 5826 5824 5822 5820 5817 5815 5812 5810 5807 5804 5801 5798 5795 5791 5788 5784 5780 5777 5773
5868 5866 5865 5863 5861 5859 5857 5855 5854 5852 5850 5848 5846 5844 5842 5840 5838 5836 5834 5832 5830 5827 5825 5823 5821 5819 5817 5814 5812 5809 5807 5804 5801 5797 5794 5791 5788 5784 5780 5777 5773 5769 5765
5865 5863 5861 5860 5858 5856 5854 5852 5850 5848 5846 5844 5842 5840 5838 5836 5834 5832 5830 5828 5825 5823 5821 5818 5816 5814 5811 5809 5806 5803 5800 5797 5794 5791 5788 5784 5781 5777 5773 5770 5766 5762 5758
5861 5860 5858 5856 5854 5852 5850 5848 5846 5844 5842 5840 5838 5836 5834 5832 5830 5827 5825 5823 5821 5818 5816 5813 5811 5808 5805 5803 5800 5797 5794 5791 5788 5785 5781 5778 5774 5770 5766 5763 5759 5755 5751